www.pogodaiklimat.ru

Погода и климат >> Архив погоды >> Россия >> Курганская область >> Шатрово


ПОГОДА в Шатрово

  • Прогноз погоды в Шатрово
  • Монитор погоды в Шатрово

АРХИВ ПОГОДЫ в Шатрово

Время (UTC), дата Ветер
(напр.,м/с)
 
Видим.   Явления Облачность Т
(С)
Тd
(С)
f
(%)
Тe
(С)
Тes
(С)
Комфортность P
(гПа)
Po
(гПа)
Тmin
(С)
Tmax
(С)
R
(мм)
R24
(мм)
S
(см)
03 18.08 ЮВ 2 20 км {туман} 9/3 600 м
[Cb calv Ac trans Ci fib]
+17.8 +15.6 87 +18 +19 1019.1 1005.7 +12.7
06 18.08 ЮВ 2 20 км {туман} 9/3 600 м
[Cb calv Ac trans Ci fib]
+23.1 +16.4 66 +28 +32 душно 1018.6 1005.4
09 18.08 З 1 20 км 10/8 600 м
[Cb calv Ac trans]
+25.0 +17.5 63 +29 +30 душно 1018.5 1005.4
12 18.08 С 2 20 км 9/8 600 м
[Cb calv Ac trans Ci fib]
+21.4 +15.4 69 +25 +25 комфорт 1020.2 1006.9
15 18.08 С 3 20 км 10/10 600 м
[Cb calv]
+18.2 +14.7 80 +19 +19 1022.0 1008.5 +25.6
18 18.08 СВ 1 10 км 10/10 600 м
[Cb calv]
+16.5 +13.6 83 +17 +17 1023.2 1009.6
21 18.08 СЗ 1 10 км {ливн. осадки} 10/10 600 м
[Cb calv]
+15.6 +13.7 88 +16 +16 1024.4 1010.8
00 19.08 СЗ 1 20 км {ливн. осадки} 10/10 600 м
[Cb calv]
+15.1 +13.4 90 +16 +16 1025.3 1011.6
03 19.08 С 2 20 км 6/4 600 м
[Cb calv Ac trans Ci fib]
+17.3 +13.0 76 +18 +19 1026.0 1012.4 +15.1
06 19.08 С 3 20 км 10/3 1000 м
[Cu hum Ci fib]
+21.6 +9.6 46 +23 +28 комфорт 1026.2 1012.8
09 19.08 С 1 20 км 10/8 1000 м
[Cu hum Ci fib]
+23.0 +10.1 44 +25 +27 комфорт 1026.0 1012.7
12 19.08 С 2 20 км 9/4 1000 м
[Cu hum Ac trans]
+21.9 +10.8 49 +24 +25 комфорт 1025.9 1012.5
15 19.08 СВ 1 20 км 10/0
[Ac und]
+19.1 +12.8 67 +21 +21 комфорт 1026.1 1012.6 +23.6
18 19.08 СЗ 1 10 км 8/0
[Ac trans]
+14.8 +12.0 83 +15 +15 1026.5 1012.8
21 19.08 штиль 0 10 км 10/0
[Ac und]
+13.7 +11.9 89 +13 +13 1026.1 1012.4
00 20.08 штиль 0 20 км 10/0
[Ac und]
+13.3 +11.6 89 +13 +13 1025.9 1012.1
03 20.08 штиль 0 20 км 10/0
[Ac und]
+15.1 +12.6 85 +15 +16 1025.1 1011.5 +13.3
06 20.08 ЮВ 1 20 км 8/5 600 м
[Sc Ac trans]
+18.1 +12.8 71 +19 +23 1023.9 1010.4
09 20.08 ЮВ 2 20 км слаб. дождь 10/5 600 м
[Sc As trans]
+17.5 +14.4 82 +18 +20 1021.8 1008.3
12 20.08 СВ 1 20 км в посл. час дождь 10/3 600 м
[Sc As op]
+17.2 +14.8 86 +18 +19 1020.6 1007.1
15 20.08 В 2 10 км слаб. дождь 10/10 600 м
[Sc]
+15.6 +14.4 93 +15 +15 1019.7 1006.1 +18.5 7
18 20.08 СВ 2 10 км слаб. морось {дождь} 10/10 300 м
[St]
+14.9 +13.6 92 +15 +15 1019.0 1005.4
21 20.08 В 2 10 км слаб. дождь {морось} 10/10 600 м
[Sc]
+14.0 +12.3 89 +13 +13 1018.3 1004.7
00 21.08 С 1 20 км {дождь, морось} 4/3 600 м
[Sc Ac trans]
+12.2 +10.8 91 +12 +12 1018.1 1004.4
03 21.08 С 2 20 км 9/4 600 м
[Cb calv Ci fib]
+12.8 +11.1 89 +12 +13 1018.5 1004.8 +11.3 0.3
06 21.08 СВ 4 20 км 8/8 1000 м
[Cu hum]
+16.9 +11.4 70 +16 +18 1019.1 1005.6
09 21.08 С 3 20 км 10/10 600 м
[Cb calv]
+16.0 +11.8 76 +16 +16 1018.8 1006.3
12 21.08 С 4 20 км 10/10 600 м
[Cb calv]
+15.7 +10.8 73 +15 +15 1020.4 1006.8
15 21.08 СЗ 1 20 км 8/8 600 м
[Cb calv]
+15.1 +11.2 78 +16 +16 1020.3 1006.7 +17.3
18 21.08 З 2 10 км ясно +11.6 +10.3 92 +10 +10 1020.6 1006.8
21 21.08 СЗ 1 10 км 8/8 600 м
[Sc]
+12.9 +11.4 91 +13 +13 1020.0 1006.3
00 22.08 З 1 4000 м дымка 4/0
[Ac trans Ci fib]
+11.1 +10.1 94 +11 +11 1020.0 1006.2
03 22.08 С 3 20 км 10/0
[As trans]
+13.0 +11.5 91 +12 +12 1020.4 1006.7 +11.0
06 22.08 СЗ 3 20 км 9/6 1000 м
[Cu hum Ci fib]
+17.0 +12.9 77 +17 +19 1020.4 1006.9
09 22.08 С 4 20 км 3/1 1000 м
[Cu hum Ci fib]
+21.5 +12.3 56 +24 +29 комфорт 1019.6 1006.3
12 22.08 С 3 20 км 4/4 1000 м
[Cu hum]
+22.3 +12.7 55 +25 +27 комфорт 1019.3 1006.0
15 22.08 З 1 20 км 8/0
[Ac trans Ci fib]
+19.0 +13.7 71 +21 +21 комфорт 1019.7 1006.3 +22.9
18 22.08 З 1 10 км 3/0
[Ci fib]
+13.1 +11.7 91 +13 +13 1020.2 1006.5
21 22.08 З 1 10 км ясно +10.2 +9.1 93 +10 +10 1020.5 1006.6
00 23.08 штиль 0 4000 м дымка 3/0
[Ci fib]
+7.4 +6.3 93 +6 +6 1020.2 1006.2
03 23.08 ЮЗ 2 20 км 9/0
[Ac trans]
+15.6 +12.2 80 +16 +17 1019.3 1005.7 +7.2
06 23.08 ЮЗ 3 20 км 8/0
[Ac trans Ci fib]
+21.3 +13.9 63 +24 +29 комфорт 1018.3 1005.1
09 23.08 ЮЗ 5 20 км 4/3 1000 м
[Cu hum Ci fib]
+24.7 +13.1 48 +27 +30 жарко 1016.7 1003.6
12 23.08 ЮЗ 4 20 км 1/1 1000 м
[Cu hum Ci fib]
+25.7 +12.8 45 +28 +30 жарко 1014.5 1001.5
15 23.08 З 2 20 км слаб. ливневой дождь 9/9 600 м
[Cb calv]
+20.8 +15.0 69 +24 +24 комфорт 1014.6 1001.3 +25.9
18 23.08 З 4 10 км {ливн. осадки} 4/0
[Ac trans]
+19.4 +15.9 80 +21 +21 комфорт 1014.9 1001.6
21 23.08 З 3
{10}
10 км ясно +14.8 +11.3 80 +14 +14 1016.1 1002.5
00 24.08 З 3 20 км 1/0
[Ac trans]
+12.5 +9.8 84 +11 +11 1016.7 1003.0
03 24.08 З 4 20 км 3/0
[Ci fib]
+13.8 +9.6 76 +12 +14 1017.5 1003.9 +11.8
06 24.08 З 6-10
{10}
20 км 4/4 1000 м
[Cu hum]
+17.8 +8.8 56 +17 +19 1017.4 1003.9
09 24.08 З 5
{11}
20 км 8/8 1000 м
[Cu hum]
+19.2 +8.4 50 +20 +21 1017.1 1003.7
12 24.08 З 4
{11}
20 км 3/3 1000 м
[Cu hum]
+20.2 +7.9 45 +21 +23 комфорт 1017.6 1004.2
15 24.08 З 1 20 км 6/6 600 м
[Cb calv]
+16.4 +9.2 62 +17 +17 1018.7 1005.2 +20.5
18 24.08 З 1 10 км ясно +10.0 +7.9 87 +10 +10 1019.3 1005.4
21 24.08 СЗ 1 10 км ясно +7.6 +6.2 91 +7 +7 1018.9 1004.9
00 25.08 В 1 4000 м 1/0
[Ci fib]
+5.4 +4.3 93 +4 +4 1018.9 1004.8

 

Местоположение метеостанции Шатрово (Курганская область, Россия): широта 56.52 долгота 64.65 высота над уровнем моря 114 м.

В архиве по умолчанию представлена погода в Шатрово за последнюю неделю. Архивные данные за месяц целиком и за предыдущие месяцы, начиная с января 2011 года, Вы можете получить, выбрав интересующий диапазон дат из раскрывающегося списка и нажав кнопку "Ввод!".


*Определитесь, кто Вы:
робот инопланетянин человек

Внимание! Время в таблицах - всемирное. Для получения местного времени необходимо прибавить поправку, которая равна 5 ч.

Смотрите также архив погоды в соседних городах и на ближайших метеорологических станциях:

Погода в Исетском (Тюменская область, Россия) (42 км)
Погода в Бутке (Свердловская область, Россия) (58 км)
Погода в Тугулыме (Свердловская область, Россия) (61 км)
Погода в Шадринске (Курганская область, Россия) (79 км)
Погода в Тюмени (Тюменская область, Россия) (82 км)
Погода в Памятном (Курганская область, Россия) (85 км)
Погода в Ялуторовске (Тюменская область, Россия) (106 км)
Погода в Далматово (Курганская область, Россия) (109 км)
Погода в Камышлове (Свердловская область, Россия) (123 км)
Погода в Кургане (Курганская область, Россия) (128 км)

Пояснения к столбцам:

Ветер - указаны скорость ветра в м/с - средняя за 10 мин, порывы в срок и между сроками (в фигурных скобках) и направление, откуда дует ветер: С - северный, СВ - северо-восточный, В - восточный, ЮВ - юго-восточный, Ю - южный, ЮЗ - юго-западный, З - западный, СЗ - северо-западный.
Видимость - горизонтальная дальность видимости в метрах или километрах. При видимости от 1 до 10 км при отсутствии осадков обычно наблюдается дымка, при ухудшении видимости до 1 км и менее - туман. В сухую погоду видимость может ухудшаться дымом, пылью или мглою.
Явления - указаны атмосферные явления, наблюдавшиеся в срок или в последний час перед сроком; фигурными скобками обозначены явления, наблюдавшиеся между сроками (за 1-3 часа до срока); квадратными скобками обозначены град или гололедные отложения с указанием их диаметра в мм.
Облачность - указаны через наклонную черту общая и нижняя облачность в баллах и высота нижней границы облаков в метрах; квадратными скобками обозначены формы облаков: Ci - перистые, Cs - перисто-слоистые, Cc - перисто-кучевые, Ac - высококучевые, As - высокослоистые, Sc - слоисто-кучевые, Ns - слоисто-дождевые, Cu - кучевые, Cb - кучево-дождевые. Подробнее классификацию облаков см. в Атласе облаков (PDF).
T - Температура воздуха - температура, измеренная на высоте 2 м над землей.
Td - Температура точки росы - температура, при понижении до которой содержащийся в воздухе водяной пар достигнет насыщения.
f - Относительная влажность воздуха - влажноcть воздуха, измеренная на высоте 2 м над землей.
Te - Эффективная температура - температура, которую ощущает одетый по сезону человек в тени. Характеристика душности погоды. При расчете учитывается влияние влажности воздуха и скорости ветра на теплоощущения человека.
Tes - Эффективная температура на солнце - температура, которую ощущает человек, с поправкой на солнечный нагрев. Характеристика знойности погоды. Зависит от высоты солнца над горизонтом, облачности и скорости ветра. Ночью, в пасмурную погоду, а также при ветре 12 м/с и более поправка равна нулю.
P - Атмосферное давление - приведенное к уровню моря атмосферное давление.
Po - Атмосферное давление - измеренное на уровне метеостанции атмосферное давление.
Tmin - Минимальная температура - минимум температуры воздуха на высоте 2 м над землей.
Tmax - Максимальная температура - максимум температуры воздуха на высоте 2 м над землей.
R - Количество осадков - Количество выпавших осадков за период времени, мм. При наведении курсора мыши на число - период времени, за который выпало указанное количество осадков.
R24 - Количество осадков - Количество выпавших осадков за 24 часа, мм.
S - Снежный покров - Высота снежного покрова, см. При наведении курсора мыши на число - состояние снежного покрова и степень покрытия местности в баллах.